MSC Luisa — H9XU — position and weather

sailwx.info

Track history (hours):
 
Tides and Currents Weather Stations Pressure Air Temp Water Temp Dewpoint Dewpoint Depression Visibility Wind Speed Wind Dir Waves Ship Positions

MSC Luisa

Last reported at 2014-Oct-23 09:07 UTC. Time now 2014-Oct-23 15:08 UTC.
Position N 40°26' E 029°05'.

Length 300 m; draft 10 m.

Type: Ship. MMSI: 355308000.

Date/timePositionNaut miles runAvg speedWind from/ knotsBaromVisibWave heightAir tempDewpointWater temp
2014-Oct-23 09:07N 40°26' E 029°05'3 4.6
2014-Oct-23 08:32N 40°26' E 029°02'1716.8
2014-Oct-23 07:33N 40°35' E 028°43'2019.4
2014-Oct-23 06:33N 40°54' E 028°42'4 0.2
2014-Oct-22 11:18N 40°58' E 028°40'0 0.0
2014-Oct-22 09:04N 40°58' E 028°40'0 0.2
2014-Oct-22 08:16N 40°58' E 028°41'2 2.4
2014-Oct-22 07:28N 40°56' E 028°41'1213.6
2014-Oct-22 06:34N 40°57' E 028°58'36 4.0
2014-Oct-21 21:33N 41°33' E 029°07'2 1.6
2014-Oct-21 20:09N 41°31' E 029°05'1 1.3
2014-Oct-21 19:33N 41°30' E 029°05'1 1.2
2014-Oct-21 18:33N 41°29' E 029°05'1 1.2
2014-Oct-21 17:33N 41°28' E 029°05'  
2014-Oct-16 13:18N 44°10' E 028°39'0 0.0
2014-Oct-16 10:04N 44°10' E 028°39'  
Track history (hours):
 
Tides and Currents Weather Stations Pressure Air Temp Water Temp Dewpoint Dewpoint Depression Visibility Wind Speed Wind Dir Waves Ship Positions

MSC Luisa

Last reported at 2014-Oct-23 09:07 UTC. Time now 2014-Oct-23 15:08 UTC.
Position N 40°26' E 029°05'.

Length 300 m; draft 10 m.

Type: Ship. MMSI: 355308000.

Date/timePositionNaut miles runAvg speedWind from/ knotsBaromVisibWave heightAir tempDewpointWater temp
2014-Oct-23 09:07N 40°26' E 029°05'3 4.6
2014-Oct-23 08:32N 40°26' E 029°02'1716.8
2014-Oct-23 07:33N 40°35' E 028°43'2019.4
2014-Oct-23 06:33N 40°54' E 028°42'4 0.2
2014-Oct-22 11:18N 40°58' E 028°40'0 0.0
2014-Oct-22 09:04N 40°58' E 028°40'0 0.2
2014-Oct-22 08:16N 40°58' E 028°41'2 2.4
2014-Oct-22 07:28N 40°56' E 028°41'1213.6
2014-Oct-22 06:34N 40°57' E 028°58'36 4.0
2014-Oct-21 21:33N 41°33' E 029°07'2 1.6
2014-Oct-21 20:09N 41°31' E 029°05'1 1.3
2014-Oct-21 19:33N 41°30' E 029°05'1 1.2
2014-Oct-21 18:33N 41°29' E 029°05'1 1.2
2014-Oct-21 17:33N 41°28' E 029°05'  
2014-Oct-16 13:18N 44°10' E 028°39'0 0.0
2014-Oct-16 10:04N 44°10' E 028°39'  

Dump ship's entire track history